SL-12 R/B(AUX MOTOR), 33472

Orbit data source: Space-Track

SL-12 R/B(AUX MOTOR), 33472 is space debris in HEO originally from a launch on Thu, 25 Dec 2008 UTC launched from the Tyuratam Missile And Space Complex (TTMTR). Debris objects in space refer to the collection of defunct objects orbiting the Earth. Examples of debris include non-operational satellites, rocket bodies, and fragments generated from explosions, collisions, or faulty payload assembly.

Loading next visibility...
SL-12 R/B(AUX MOTOR) details
Identifier
33472, 2008-067G
Orbit
HEO
Last TLE update13 hours ago
Origin
Flag of CISKVR (CIS)
ManufacturerRKKE
MissionSpacecraft
Bus & MotorSOZ, Unknown motor
Mass56 kg wet, 56 kg dry
Launch date (UTC)
2008-12-25 (16 years ago)
Launch vehicleUnknown
Launch site
Tyuratam Missile And Space Complex (TTMTR)
Object type
Payload
Rocket body
Debris
Shape & HBRCyl, 1.1 m
Radar Cross Section0.660 m², Medium (>0.1 m² and < 1m²)

Expand to show TLE details & history

TLE from 13 hours ago
0 SL-12 R/B(AUX MOTOR)
1 33472U 08067G   24361.07852726  .00000390  00000-0  10488-2 0  9998
2 33472  64.9344 264.5327 5623320 304.3384  14.5987  4.39941503248181
Epoch: 2024-12-26T01:53Z
Definitive object data (Epoch: 2024-12-26T01:53:04.755Z)
Latitude0.00037°
Longitude141.18295°
Altitude1,796.118 km
Speed8.498 km/s
True Right ascension17h 38m 03s
True Declination0° 00' 01"
Sunlit
Object was in daylight at TLE epoch
Visualization TLE readout
Latitude59.34898°
Longitude-90.96133°
Altitude17,040.396 km
Speed2.954 km/s
Apparent Right ascension02h 06m 15s
Apparent Declination43° 37' 34"
Sunlit
Object is in daylight
Visualization observer readout
Local Sidereal Time13:58:24
Azimuth358.569° N
Elevation-6.439°
Doppler factor1
Orbital elements
Apogee altitude18,199.905 km
Perigee altitude507.098 km
Semi-major axis15,731.638 km
Eccentricity0.562332
Inclination64.9344°
RAAN264.5327°
Arg. of periapsis304.3384°
True anomaly55.89812°
Mean anomaly14.5987°
Eccentric anomaly31.37161°
Mean motion1.09997 °/min
BSTAR0.0010488
Orbital period327.28 mins
Loading maneuver chart data...
Loading historical data...
Loading historical data...
Loading historical data...
Loading historical data...
Loading historical data...
Loading historical data...
Loading historical data...

SL-12 R/B(AUX MOTOR) Visibility forecast

Observer location: undefined°, undefined

Span
Click to sort rows by Start time (UTC) header in descending order
Start Az.
Max El. time (UTC)
Max El. Az.
Max El.
End time (UTC)
End Az.
117 mins2024-12-26 18:17:32.103Z175.132° S2024-12-26 18:32:32.103Z96.582° ESE41.491°2024-12-26 20:14:32.103Z36.057° NE
246 mins2024-12-27 00:03:32.103Z294.117° NW2024-12-27 02:09:32.103Z55.085° ENE41.17°2024-12-27 04:09:32.103Z137.968° SSE
194 mins2024-12-27 06:10:32.103Z330.65° NNW2024-12-27 07:46:32.103Z298.016° NW32.639°2024-12-27 09:24:32.103Z246.338° WSW
|